Temp
43 44 45 46 46 46 45 45 46 47 47 49 52 53 55 56 57 59 63 66 66 69 72 75 76 75 74 72 71 71 71 71 71 71 71 70 69 68 68 69 69 68 68
42 42 42 43 44 44 45 44 45 45 45 48 49 51 52 53 55 57 59 63 65 66 69 71 75 76 75 73 71 71 71 71 71 71 71 70 69 69 69 69 68 67 68
42 41 41 42 42 43 44 45 46 46 46 47 47 48 49 51 53 55 57 59 64 64 65 67 70 74 75 74 72 71 70 70 70 71 71 70 69 68 68 68 68 68 68
42 40 40 40 41 41 42 42 43 43 44 45 46 46 47 50 52 54 54 56 60 66 65 64 66 70 73 73 73 72 71 70 70 70 70 70 69 68 68 68 67 67 67
41 39 39 39 40 39 39 40 40 41 40 42 46 48 48 48 48 53 52 54 57 61 66 66 64 65 68 71 73 73 73 71 71 71 70 69 69 68 68 67 67 67 67
40 38 39 38 38 38 38 38 40 42 42 41 44 46 47 48 48 48 50 55 57 59 63 66 65 64 62 67 71 73 73 73 72 71 71 70 69 68 67 67 67 67 67
39 38 38 37 37 38 38 40 40 40 40 43 42 43 44 47 47 48 51 52 54 57 59 65 66 65 65 63 67 72 74 73 73 72 71 70 69 68 67 67 67 67 67
38 38 37 35 37 37 37 38 38 38 39 42 38 39 39 42 48 49 53 53 51 54 58 63 65 65 65 66 64 66 71 72 72 72 71 70 69 68 67 67 67 67 67
37 36 37 36 36 37 35 36 37 37 35 39 42 39 37 38 41 45 50 52 51 52 55 57 63 64 65 65 64 64 63 64 69 71 70 69 69 68 68 67 66 67 68
36 35 34 35 35 36 35 35 38 37 37 35 40 44 43 41 38 38 44 49 51 52 51 52 58 62 64 65 65 62 59 58 62 68 70 70 69 68 68 67 67 67 67
34 34 33 34 34 35 34 34 35 37 37 37 38 39 41 42 42 40 38 43 49 52 52 52 55 56 62 64 65 63 57 56 57 60 67 69 69 68 68 68 68 67 67
32 31 32 32 33 34 33 33 35 35 35 35 37 37 38 36 39 40 40 42 43 47 51 52 52 54 56 62 64 60 56 55 56 58 61 66 67 67 68 68 68 68 68
29 28 31 30 32 32 33 33 34 33 33 32 32 34 36 37 38 40 41 42 43 47 47 50 50 52 59 59 62 59 57 53 55 57 58 61 63 64 65 66 67 67 68
27 28 31 30 30 31 31 32 32 31 33 31 31 32 34 35 36 37 36 37 37 42 47 47 51 53 56 59 61 56 61 52 52 53 55 58 58 59 60 62 64 65 65
29 27 30 28 28 28 28 28 29 28 30 30 30 30 31 34 35 35 35 35 35 35 39 49 49 53 57 60 60 61 62 57 50 51 53 54 56 57 58 60 60 62 63
27 27 28 29 27 26 26 26 27 27 27 28 28 28 29 31 33 34 33 34 36 35 36 45 48 51 54 56 58 58 61 52 48 48 50 50 52 54 56 56 57 59 60
26 27 27 28 26 24 25 24 25 25 25 25 26 27 27 29 30 31 32 32 33 34 34 40 47 48 46 43 53 54 52 50 45 44 46 49 49 49 51 52 52 54 56
26 26 26 27 25 23 23 22 22 23 21 22 24 25 25 28 27 28 30 29 29 33 32 34 42 41 41 38 46 45 49 48 45 43 43 43 43 43 43 45 46 49 51
24 24 25 24 25 25 23 21 21 22 20 21 23 23 24 25 25 25 26 27 27 30 31 32 33 36 39 36 41 43 41 42 45 44 42 41 41 41 41 42 42 43 44
20 20 21 21 23 25 25 23 22 20 22 22 23 24 25 25 25 25 24 24 25 26 26 27 29 29 32 34 35 36 37 36 36 42 41 39 39 39 39 39 41 42 42
17 18 19 20 20 22 25 21 19 18 20 20 22 23 25 28 29 28 24 23 24 23 23 23 24 26 26 28 29 32 37 34 34 35 36 35 36 36 37 38 38 38 40
18 18 17 18 16 27 31 30 24 14 16 20 18 19 22 25 24 26 27 26 26 22 21 21 21 21 23 24 29 30 31 33 31 33 34 32 35 33 35 37 38 38 37
22 21 19 21 22 23 31 30 28 18 18 19 20 19 20 22 23 20 24 24 23 26 24 21 19 21 21 23 27 28 28 28 26 29 33 28 33 31 33 35 37 37 37
23 23 22 23 23 28 31 30 28 24 23 22 22 22 21 22 24 22 21 20 18 19 21 23 22 21 23 24 25 28 28 29 28 26 28 25 28 29 32 33 37 37 36
23 22 22 21 21 22 31 30 27 24 23 21 23 25 24 23 27 26 21 19 17 16 23 25 25 26 25 26 25 25 23 24 23 23 23 26 26 27 30 30 32 35 34
24 23 22 18 23 21 29 31 28 24 18 19 19 21 28 25 26 25 20 18 13 13 15 17 17 19 21 21 23 20 21 19 19 18 22 24 24 25 25 30 30 28 29
MSLP
1019.28 1018.89 1018.46 1017.93 1017.48 1016.96 1016.55 1016.12 1015.66 1015.07 1014.49 1013.88 1013.28 1012.84 1012.39 1011.86 1011.27 1010.74 1010.06 1009.30 1009.00 1008.73 1008.49 1008.58 1008.73 1008.90 1009.16 1009.54 1010.09 1010.75 1011.25 1011.69 1012.08 1012.49 1012.84 1013.34 1014.05 1014.48 1015.10 1015.52 1015.56 1015.99 1016.68
1019.82 1019.44 1018.72 1018.31 1017.79 1017.19 1016.67 1016.13 1015.61 1015.09 1014.50 1013.94 1013.41 1012.87 1012.32 1011.84 1011.26 1010.63 1010.16 1009.42 1008.68 1008.40 1007.99 1007.91 1007.97 1008.07 1008.27 1008.65 1009.18 1009.76 1010.43 1011.01 1011.46 1011.96 1012.38 1012.69 1013.44 1014.06 1014.53 1014.87 1015.12 1015.56 1016.34
1020.03 1019.59 1018.96 1018.56 1018.08 1017.39 1016.71 1015.97 1015.37 1014.86 1014.41 1013.89 1013.44 1012.93 1012.34 1011.60 1010.96 1010.35 1009.86 1009.39 1008.67 1007.95 1007.60 1007.32 1007.23 1007.28 1007.49 1007.86 1008.38 1008.95 1009.40 1010.12 1010.75 1011.30 1011.82 1012.20 1012.69 1013.32 1013.81 1014.35 1014.66 1015.15 1015.82
1020.08 1019.73 1019.38 1019.04 1018.44 1017.75 1017.09 1016.43 1015.75 1015.09 1014.65 1013.82 1012.99 1012.60 1011.98 1011.34 1010.73 1010.15 1009.53 1009.10 1008.63 1007.78 1007.07 1006.76 1006.66 1006.73 1006.86 1007.18 1007.76 1008.21 1008.72 1009.22 1009.98 1010.67 1011.22 1011.68 1012.11 1012.57 1013.08 1013.70 1014.15 1014.72 1015.31
1020.32 1020.14 1019.62 1019.43 1018.91 1018.18 1017.61 1017.00 1016.28 1015.53 1014.91 1014.12 1012.93 1012.05 1011.49 1010.85 1010.31 1009.68 1009.00 1008.43 1008.07 1007.60 1006.83 1006.30 1006.16 1006.23 1006.22 1006.38 1006.76 1007.46 1007.93 1008.60 1009.14 1009.90 1010.47 1011.10 1011.57 1011.99 1012.34 1013.06 1013.65 1014.22 1014.82
1020.65 1020.46 1020.05 1019.73 1019.16 1018.58 1017.93 1017.22 1016.45 1015.77 1015.03 1014.30 1013.02 1011.96 1010.87 1010.06 1009.23 1008.86 1008.36 1007.80 1007.21 1006.95 1006.66 1006.08 1005.89 1005.81 1005.87 1005.78 1006.04 1006.50 1007.21 1007.73 1008.35 1008.80 1009.66 1010.37 1010.91 1011.39 1011.65 1012.26 1012.94 1013.59 1014.13
1020.90 1020.73 1020.34 1020.02 1019.55 1018.86 1018.19 1017.54 1016.59 1015.92 1014.95 1014.17 1012.87 1011.63 1010.27 1009.06 1008.54 1008.29 1007.93 1007.38 1007.09 1006.72 1006.25 1005.71 1005.56 1005.38 1005.23 1005.46 1005.49 1005.72 1006.15 1006.82 1007.50 1007.88 1008.65 1009.54 1010.18 1010.77 1011.23 1011.58 1012.19 1012.73 1013.42
1021.35 1021.13 1020.63 1020.40 1019.72 1019.17 1018.55 1017.69 1017.02 1016.20 1015.34 1014.63 1013.90 1012.55 1010.49 1009.00 1008.38 1007.99 1007.57 1007.06 1007.12 1006.71 1006.15 1005.59 1005.14 1004.86 1004.68 1004.73 1004.92 1005.20 1005.35 1005.83 1006.61 1007.13 1007.51 1008.46 1009.29 1009.95 1010.61 1011.12 1011.51 1012.04 1012.55
1021.85 1021.64 1021.09 1020.75 1020.01 1019.60 1018.52 1017.99 1017.53 1016.88 1015.83 1015.05 1014.46 1013.93 1012.24 1010.89 1010.15 1008.10 1007.54 1007.29 1007.21 1006.79 1006.26 1005.76 1005.02 1004.47 1004.22 1004.19 1004.32 1004.45 1004.77 1005.01 1005.36 1006.02 1006.50 1007.37 1008.23 1008.98 1009.62 1010.20 1010.73 1011.09 1011.74
1022.32 1022.10 1021.68 1020.99 1020.51 1019.60 1018.79 1018.49 1017.99 1017.16 1016.36 1015.34 1014.57 1013.74 1013.46 1012.86 1011.50 1009.20 1008.03 1007.54 1007.14 1006.66 1006.09 1005.71 1005.21 1004.36 1003.67 1003.62 1003.77 1004.00 1003.85 1004.51 1004.86 1005.05 1005.17 1006.11 1007.12 1007.90 1008.65 1009.33 1009.85 1010.32 1011.00
1022.71 1022.41 1022.09 1021.32 1020.81 1019.47 1019.38 1018.93 1018.29 1017.14 1016.54 1015.85 1014.92 1014.08 1013.21 1012.59 1011.88 1010.91 1008.89 1007.70 1006.89 1006.66 1006.27 1005.84 1005.40 1004.77 1003.91 1003.10 1003.08 1003.24 1003.54 1003.74 1003.34 1004.56 1004.99 1005.18 1005.93 1006.75 1007.57 1008.27 1008.93 1009.48 1010.20
1023.10 1022.94 1022.45 1021.74 1020.93 1019.88 1019.61 1019.25 1018.62 1017.74 1017.02 1016.41 1015.41 1014.71 1013.88 1013.36 1012.04 1011.13 1009.81 1008.74 1007.79 1006.15 1005.90 1005.51 1005.16 1004.54 1004.03 1003.27 1002.56 1002.47 1002.78 1002.77 1002.84 1003.30 1004.49 1004.95 1005.14 1005.58 1006.38 1007.24 1008.06 1008.71 1009.19
1023.76 1023.46 1022.81 1022.15 1021.05 1020.50 1020.07 1019.74 1019.06 1018.12 1017.42 1017.02 1016.25 1015.33 1014.53 1013.68 1012.87 1011.63 1010.36 1008.94 1007.81 1006.71 1005.85 1005.13 1004.73 1004.33 1003.69 1003.19 1002.50 1002.05 1002.01 1002.21 1002.06 1002.65 1003.87 1004.34 1004.58 1005.20 1005.56 1006.34 1007.13 1007.88 1008.36
1024.39 1023.96 1023.24 1022.47 1021.49 1020.97 1020.78 1020.26 1019.51 1018.83 1018.11 1017.59 1016.87 1016.03 1015.03 1014.26 1013.41 1012.56 1011.70 1010.49 1008.50 1007.03 1005.78 1004.93 1004.16 1003.88 1003.11 1002.56 1001.92 1001.62 1001.52 1001.58 1001.98 1001.88 1002.59 1003.04 1004.00 1003.50 1004.98 1005.52 1006.20 1006.94 1007.52
1024.54 1024.14 1023.67 1022.83 1021.93 1021.48 1021.49 1020.92 1020.19 1019.52 1018.88 1018.30 1017.58 1016.79 1015.79 1014.73 1013.78 1012.95 1012.14 1011.43 1010.26 1007.93 1006.09 1004.93 1004.21 1003.40 1002.90 1002.20 1001.64 1001.06 1001.03 1000.76 1001.32 1001.85 1002.11 1002.47 1003.73 1002.66 1003.94 1004.69 1005.27 1005.97 1006.60
1024.90 1024.41 1023.99 1023.10 1022.43 1022.14 1021.94 1021.50 1020.90 1020.44 1019.57 1018.86 1018.22 1017.45 1016.41 1015.37 1014.22 1013.33 1012.55 1011.62 1010.68 1009.35 1007.27 1005.79 1004.56 1003.56 1003.17 1002.58 1001.49 1000.93 1000.65 1001.30 1001.22 1001.34 1001.67 1001.85 1001.88 1002.05 1003.29 1004.24 1004.58 1005.14 1005.61
1025.25 1024.80 1024.40 1023.74 1023.06 1022.85 1022.64 1022.23 1021.63 1021.15 1020.41 1019.53 1018.79 1018.07 1017.09 1016.00 1014.85 1013.91 1013.03 1012.14 1011.01 1009.89 1008.09 1006.25 1004.79 1003.98 1003.73 1003.63 1002.21 1001.53 1001.36 1001.99 1002.41 1002.11 1001.66 1001.95 1002.64 1003.17 1003.92 1003.91 1004.19 1004.25 1004.58
1025.61 1025.24 1024.73 1024.13 1023.62 1023.44 1023.33 1022.77 1022.43 1021.75 1021.18 1020.50 1019.63 1018.63 1017.66 1016.61 1015.70 1014.78 1013.67 1012.55 1011.65 1010.40 1009.33 1007.35 1005.67 1005.06 1004.75 1004.52 1003.61 1002.64 1002.71 1002.94 1003.18 1003.67 1003.42 1003.87 1004.15 1004.05 1004.32 1004.50 1004.46 1002.64 1004.37
1026.20 1025.93 1025.15 1024.46 1024.08 1023.95 1023.70 1023.20 1022.99 1022.44 1021.77 1021.22 1020.32 1019.26 1018.32 1017.38 1016.53 1015.64 1014.66 1013.41 1012.27 1011.44 1010.38 1009.14 1007.78 1007.29 1006.08 1005.71 1004.48 1003.98 1004.12 1004.07 1003.90 1004.03 1004.03 1004.51 1004.36 1004.73 1004.54 1004.96 1005.06 1004.32 1004.82
1026.84 1026.36 1025.64 1025.11 1024.65 1024.26 1024.00 1023.85 1023.44 1022.96 1022.32 1021.60 1020.93 1020.03 1018.91 1018.19 1017.49 1016.65 1015.95 1014.74 1013.43 1012.33 1011.66 1010.56 1009.61 1009.05 1008.15 1007.28 1005.84 1005.56 1005.42 1005.60 1005.58 1005.37 1005.34 1005.66 1005.58 1005.85 1005.23 1005.70 1005.55 1005.12 1004.31
1027.29 1026.80 1026.14 1025.60 1025.17 1024.60 1024.19 1023.99 1023.89 1023.56 1022.86 1022.21 1021.45 1020.69 1019.83 1018.91 1018.35 1017.64 1017.00 1015.97 1014.49 1013.52 1013.33 1012.55 1011.70 1011.21 1009.42 1008.85 1008.12 1006.80 1006.63 1006.30 1006.67 1006.80 1006.62 1006.76 1006.90 1006.68 1006.83 1006.78 1006.58 1006.51 1005.74
1027.46 1026.98 1026.47 1026.16 1025.66 1024.96 1024.42 1024.23 1024.22 1023.87 1023.38 1022.73 1022.07 1021.38 1020.44 1019.58 1019.02 1018.52 1017.88 1017.29 1016.17 1015.31 1015.14 1014.57 1013.68 1012.69 1011.58 1010.26 1009.44 1008.38 1007.30 1007.09 1008.20 1007.96 1008.10 1007.70 1008.04 1008.18 1008.29 1008.27 1008.08 1008.00 1007.70
1027.54 1027.23 1026.92 1026.54 1026.02 1025.33 1024.90 1024.71 1024.53 1024.29 1023.81 1023.29 1022.67 1022.00 1021.09 1020.32 1019.60 1019.27 1018.83 1018.19 1017.75 1016.99 1016.74 1016.17 1015.47 1014.54 1013.49 1012.40 1010.63 1009.82 1008.39 1008.75 1009.69 1010.15 1009.42 1009.99 1009.73 1009.86 1009.93 1009.77 1009.61 1008.56 1008.16
1027.67 1027.55 1027.34 1027.00 1026.53 1025.72 1025.32 1025.17 1024.87 1024.68 1024.28 1023.79 1023.22 1022.60 1021.90 1021.14 1020.50 1019.85 1019.57 1019.02 1018.76 1018.46 1017.76 1017.17 1016.44 1016.00 1014.96 1013.65 1012.10 1010.65 1010.44 1010.50 1010.68 1010.60 1010.40 1010.87 1011.07 1010.92 1010.76 1010.35 1009.85 1009.52 1009.21
1027.89 1027.85 1027.88 1027.65 1027.16 1026.50 1025.44 1025.41 1025.24 1025.03 1024.83 1024.45 1023.95 1023.06 1022.57 1022.05 1021.53 1020.93 1020.48 1019.95 1019.67 1019.44 1018.88 1018.24 1017.69 1017.07 1016.45 1015.21 1013.83 1012.32 1012.39 1011.59 1011.93 1012.13 1012.27 1012.26 1012.41 1011.85 1011.53 1011.33 1011.07 1010.79 1010.35
1028.07 1028.31 1028.34 1028.16 1027.84 1027.21 1026.00 1025.38 1025.41 1025.37 1025.32 1025.00 1024.62 1024.19 1023.15 1022.82 1022.44 1021.95 1021.62 1021.41 1020.89 1020.60 1019.88 1019.02 1018.51 1017.80 1017.04 1016.31 1015.45 1014.83 1014.30 1014.12 1014.10 1013.37 1014.30 1013.80 1013.19 1012.72 1012.34 1012.26 1012.25 1012.03 1011.45
Wind_Speed
7 7 7 7 7 8 8 8 8 8 9 10 9 9 9 10 8 6 6 13 17 20 23 23 21 23 24 24 24 24 23 22 22 21 23 23 22 22 21 24 21 20 19
6 7 7 7 7 8 8 8 8 8 7 8 10 9 10 10 11 10 7 9 14 20 21 22 23 24 26 25 25 25 24 23 22 21 20 22 21 22 24 22 18 19 20
8 8 6 8 9 9 11 8 8 7 8 7 9 9 9 11 11 11 8 7 10 14 20 20 20 23 26 26 25 25 26 24 23 22 21 20 22 21 21 21 22 21 22
10 8 7 8 10 9 9 9 9 9 9 9 9 8 8 8 11 13 10 8 8 8 11 21 18 20 25 25 25 26 26 25 24 23 22 20 21 21 22 21 21 22 23
11 9 6 8 10 9 8 9 9 9 10 10 11 10 9 9 10 11 13 12 11 10 8 12 17 18 19 25 27 27 27 27 26 25 24 22 21 22 21 21 21 22 23
11 9 6 10 9 8 9 9 12 11 10 10 11 12 10 9 10 10 11 11 10 9 9 10 7 9 15 17 26 29 29 29 28 28 26 25 24 23 22 23 23 23 23
10 9 8 10 10 10 12 11 10 12 10 10 10 10 9 11 7 7 8 9 10 10 9 9 7 6 7 20 23 27 30 30 29 29 28 26 25 24 22 23 24 24 25
9 10 10 10 11 9 12 11 12 9 9 9 8 10 7 5 8 10 4 5 4 6 9 11 11 11 9 8 14 21 27 28 30 29 29 27 26 25 24 24 25 26 26
9 10 11 10 10 10 9 12 11 12 9 9 10 5 5 5 13 4 13 6 11 8 7 10 11 10 10 9 10 17 23 26 28 31 29 28 27 26 27 27 26 28 26
9 11 11 10 10 8 11 11 11 9 9 9 7 4 7 9 4 9 3 13 9 10 8 6 9 9 10 8 11 15 19 20 20 27 29 29 29 28 28 27 26 26 26
8 10 11 11 10 8 10 12 13 10 8 9 8 7 8 7 9 7 11 8 11 7 9 9 10 10 12 8 9 11 17 21 15 15 23 29 31 30 30 29 28 28 27
7 9 12 10 10 11 11 10 12 12 10 9 8 8 7 5 8 7 7 10 12 14 9 9 8 7 9 9 10 13 16 18 20 19 22 26 28 30 30 29 28 29 29
7 9 12 10 9 12 12 11 10 11 11 10 10 9 7 8 7 8 8 10 9 10 8 8 7 7 8 8 9 14 15 19 23 25 19 25 25 25 27 27 29 30 30
5 8 10 9 11 12 12 11 8 10 11 10 13 11 8 8 8 8 7 9 10 8 9 12 6 7 9 8 12 16 13 17 18 18 20 24 16 14 18 24 27 29 30
7 7 9 9 11 11 11 11 8 11 11 11 10 11 9 8 8 8 8 8 7 6 7 7 9 6 6 6 9 10 11 12 15 17 21 19 21 12 20 25 26 28 30
7 7 9 9 11 11 11 11 9 11 11 9 10 14 12 10 10 8 9 8 7 9 8 5 10 11 7 7 7 6 5 11 12 4 10 8 10 13 23 19 23 26 28
7 8 7 8 11 11 11 10 11 12 12 12 12 13 16 14 10 10 9 8 8 8 8 8 9 5 5 9 9 7 11 11 12 22 10 7 10 11 16 16 17 19 24
8 7 7 8 8 10 10 11 11 11 12 13 13 13 15 12 15 13 10 12 11 10 9 12 5 6 5 11 8 10 9 10 11 21 26 26 23 20 16 9 7 12 13
7 7 8 9 8 6 10 10 10 11 10 10 13 13 14 14 14 13 13 12 11 10 10 8 8 6 3 8 6 9 10 10 10 19 20 22 26 26 25 23 20 21 13
6 7 8 8 7 7 9 11 11 11 11 11 12 13 13 14 14 14 13 13 12 12 12 11 10 9 6 7 6 5 7 9 9 10 18 18 22 26 30 26 26 25 25
4 5 7 9 8 5 6 7 10 9 10 11 12 12 14 20 24 21 11 14 15 13 11 12 12 8 10 9 8 5 0 6 12 9 11 11 10 11 14 21 23 27 27
5 5 7 6 6 6 17 18 13 7 7 9 12 12 12 19 18 23 24 26 24 16 14 11 10 13 13 11 7 5 4 4 3 10 7 12 10 11 11 11 26 27 28
4 6 6 7 9 4 17 16 18 6 7 10 8 12 12 11 16 12 18 21 22 27 17 11 12 14 12 15 11 8 12 9 6 6 2 8 8 10 8 11 24 28 29
4 4 6 8 8 8 16 17 15 8 9 11 11 12 13 15 19 17 14 13 13 13 15 11 13 13 15 16 13 10 8 5 7 11 10 5 6 8 7 8 26 28 29
4 6 6 6 8 8 15 15 12 7 8 9 11 13 13 14 26 26 15 15 14 14 16 24 24 26 27 31 27 12 12 7 6 7 12 4 5 3 6 8 9 23 27
5 4 6 5 10 8 13 15 11 5 6 6 6 9 24 19 26 26 14 13 14 14 14 15 15 18 20 21 27 17 13 11 5 6 10 4 6 4 2 4 9 9 9
Wind_Direction
4 356 350 347 345 342 338 334 329 327 322 315 312 307 308 306 300 294 296 269 249 247 244 249 238 222 213 201 196 199 202 202 204 203 197 192 196 191 200 214 191 180 176
2 355 349 346 341 337 325 321 319 319 315 316 311 313 308 302 299 298 291 298 259 252 246 244 244 229 216 208 198 196 201 204 205 205 203 192 195 199 198 203 198 182 174
4 353 349 350 344 335 329 322 319 317 317 313 306 303 299 293 288 286 290 297 291 255 248 250 241 239 222 210 203 199 199 201 205 205 204 200 190 190 193 194 188 179 181
5 355 351 349 341 336 334 333 330 330 321 315 311 300 288 287 291 285 284 281 285 290 250 248 242 240 225 213 207 203 203 201 203 205 203 203 198 194 195 189 186 184 184
4 353 348 343 339 336 334 331 329 323 321 316 307 306 301 287 279 276 272 268 264 268 272 253 242 235 229 220 214 211 207 206 203 205 204 204 201 198 192 189 187 187 188
4 354 344 346 342 336 333 328 327 326 320 312 309 303 295 283 258 256 262 261 255 254 270 264 248 238 234 221 219 216 212 208 208 204 206 205 204 205 196 189 189 190 190
3 355 351 347 342 340 335 328 329 324 323 318 313 318 292 282 268 253 267 267 272 269 259 262 251 232 240 236 225 225 216 210 211 206 206 208 206 204 202 195 193 192 193
2 357 351 347 342 337 336 340 335 322 322 336 317 303 332 327 356 330 339 312 314 299 276 261 249 235 228 228 228 231 220 223 215 212 207 207 207 202 201 201 197 196 197
3 0 348 348 344 339 342 340 328 333 319 321 323 316 330 334 336 314 325 341 338 326 331 332 293 246 232 230 225 219 212 212 223 215 208 206 205 204 201 204 201 201 196
2 359 347 346 340 344 355 339 325 321 314 316 318 312 303 297 309 314 325 316 320 315 300 312 308 298 238 226 224 222 213 221 220 220 207 207 206 205 204 202 202 199 195
1 359 345 346 334 4 349 341 325 337 337 325 324 326 297 295 271 270 294 310 311 306 310 302 314 310 299 251 232 223 214 201 202 233 230 213 208 206 204 205 202 200 201
357 355 343 348 340 5 353 344 334 345 346 337 336 347 334 316 300 288 295 299 297 306 300 296 285 284 308 289 254 230 207 208 191 210 226 226 211 206 207 206 204 204 203
354 352 348 348 356 3 357 343 348 349 355 345 348 337 339 329 325 324 301 289 288 292 293 285 280 267 277 298 279 245 222 214 204 203 199 226 220 211 208 207 208 210 209
339 350 350 353 0 11 359 348 357 357 354 351 350 346 337 345 333 327 314 309 303 287 288 284 290 285 268 269 268 249 243 218 224 219 202 205 216 226 220 209 210 213 212
357 2 353 354 10 13 2 353 3 4 0 354 354 347 349 345 341 336 329 317 302 303 290 294 303 300 305 292 281 258 240 227 205 209 206 206 215 198 233 218 212 211 215
352 1 11 5 16 17 6 2 2 359 5 8 0 350 355 350 354 350 339 326 305 293 283 318 294 287 316 328 318 288 236 59 23 247 238 241 230 209 229 225 217 215 213
359 6 8 3 25 19 13 10 7 5 2 5 5 359 1 352 356 354 352 344 334 325 296 292 278 2 8 353 356 44 64 71 52 42 42 213 212 209 223 227 222 215 207
11 7 5 14 18 25 14 12 8 6 5 4 1 2 6 357 2 357 358 5 355 346 328 305 357 346 21 349 343 39 55 62 64 52 61 60 62 56 44 18 336 266 232
11 6 12 17 12 23 22 14 6 2 5 2 7 7 10 2 7 1 1 7 6 2 354 347 357 348 342 9 337 47 36 43 53 49 51 49 51 48 48 41 34 21 333
7 360 9 9 3 17 36 21 9 4 5 11 11 8 14 15 11 8 2 8 13 21 8 9 8 357 343 315 2 1 42 45 40 49 53 48 47 43 42 36 32 27 20
0 2 10 6 357 17 33 32 8 353 359 8 13 10 10 25 22 21 15 10 18 29 18 13 10 357 357 342 354 349 55 75 44 25 50 41 41 44 41 38 35 28 22
2 15 12 1 349 29 39 35 28 353 349 4 12 8 13 17 19 17 27 28 30 29 23 19 6 4 352 356 351 18 19 42 50 10 38 50 35 45 40 40 43 40 39
20 20 13 8 4 10 37 35 30 0 8 11 14 15 15 15 19 13 15 26 26 29 27 22 21 10 360 351 346 6 42 56 57 6 30 51 33 51 35 43 46 42 38
42 35 21 14 9 13 46 34 30 17 22 20 16 33 22 19 22 19 11 23 25 21 24 22 25 20 17 5 359 18 21 57 62 36 8 55 5 41 31 34 45 42 39
72 51 35 7 10 354 41 42 27 27 24 20 19 20 38 28 30 28 21 16 18 17 14 25 28 28 26 27 28 25 22 21 41 31 19 24 351 350 36 32 26 39 37
93 66 51 19 12 356 10 34 42 24 18 14 8 19 35 42 36 36 30 23 20 4 3 9 15 18 17 18 23 31 22 30 21 28 0 8 353 346 39 3 37 26 25